Weather at King Ranch Airport [CLOSED]

Public forecast

Using degrees Celsius for public forecast. Weather courtesy of forecast.io.

Closest aviation weather report (METAR) to King Ranch Airport

Closest report is Calgary International Airport, 31.3 nm (57.9 km) N.

2024/05/22 16:00 (retrieved 44 minutes ago)

CYYC 221600Z 07011G17KT 6SM -RA BR BKN011 OVC030 06/05 A2983 RMK SC7SC1 SLP128

Closest aviation forecast (TAF) to King Ranch Airport

Closest forecast is Calgary International Airport, 31.3 nm (57.9 km) N.

2024/05/22 16:15 Ammendment (retrieved 29 minutes ago)

TAF AMD CYYC 221611Z 2216/2312 11012G22KT 6SM -RA BR SCT005 BKN010 OVC030 TEMPO 2216/2218 2SM -RA BR BKN005 OVC010 FM221800 08012G22KT 5SM -RA BR SCT008 OVC012 TEMPO 2218/2220 6SM -RA BR SCT012 OVC020 FM222000 05012G22KT P6SM -SHRA SCT020 BKN040 TEMPO 2220/2222 5SM -SHRA BR BKN020 OVC030 FM222200 03012G22KT P6SM VCSH SCT025 BKN040 TEMPO 2222/2302 P6SM -SHRA BKN025 FM230200 05012KT P6SM FEW012 BKN025 TEMPO 2302/2307 5SM -SHRA BR BKN012 OVC020 BECMG 2303/2305 36008KT FM230700 33006KT 6SM -RA BR FEW006 OVC012 TEMPO 2307/2312 3SM -RA BR OVC006 RMK NXT FCST BY 221800Z